Paynesville, MN

11:32 PM CDT on May 25, 2017 (GMT -0500)
Paynesville

Weather History for KPEX - January, 2013

Change the Weather History Date:

Monday, January 7, 2013

  Actual Average (KLJF) Record (KLJF)
Temperature  
Mean Temperature 24 °F -  
Max Temperature 33 °F 16 °F 50 °F (2003)
Min Temperature 14 °F -2 °F -27 °F (1982)
Degree Days  
Heating Degree Days 42    
Moisture  
Dew Point 20 °F    
Average Humidity 79    
Maximum Humidity 96    
Minimum Humidity 67    
Precipitation  
Precipitation 0.00 in - - ()
Sea Level Pressure  
Sea Level Pressure 29.87 in    
Wind  
Wind Speed 8 mph (SW)    
Max Wind Speed 13 mph    
Max Gust Speed 20 mph    
Visibility 10 miles    
Events      
Averages and records for this station are not official NWS values.
T = Trace of Precipitation, MM = Missing Value Source: NWS Daily Summary

Daily Weather History Graph

Daily Weather History Graph

Search for Another Location

Airport or City:

Trip Planner

Search our weather history database for the weather conditions in past years. The results will help you decide how hot, cold, wet, or windy it might be!

Date:

Astronomy

Jan. 07, 2013 Rise Set
Actual Time 7:57 AM CST 4:53 PM CST
Civil Twilight 7:24 AM CST 5:26 PM CST
Nautical Twilight 6:47 AM CST 6:03 PM CST
Astronomical Twilight 6:11 AM CST 6:39 PM CST
Moon 3:19 AM CST (1/7) 1:07 PM CST (1/7)
Length of Visible Light 10h 02m
Length of Day
8h 55m
Waning Crescent, 22% of the Moon is Illuminated
Jan 7
Waning Crescent
Jan 11
New
Jan 18
First Quarter
Jan 26
Full
Feb 3
Last Quarter

Hourly Weather History & Observations

Time (CST) Temp. Windchill Dew Point Humidity Pressure Visibility Wind Dir Wind Speed Gust Speed Precip Events Conditions
12:13 AM 20.1 °F 8.8 °F 15.4 °F 82% 29.87 in 10.0 mi South 10.4 mph 17.3 mph N/A   Clear
12:34 AM 21.2 °F 10.1 °F 15.6 °F 79% 29.86 in 10.0 mi South 10.4 mph 19.6 mph N/A   Clear
12:54 AM 21.2 °F 11.7 °F 15.6 °F 79% 29.86 in 10.0 mi South 8.1 mph - N/A   Clear
1:13 AM 21.7 °F 12.3 °F 16.0 °F 78% 29.85 in 10.0 mi South 8.1 mph - N/A   Clear
1:34 AM 22.5 °F 11.7 °F 16.7 °F 79% 29.84 in 10.0 mi South 10.4 mph - N/A   Clear
1:53 AM 23.0 °F 12.4 °F 17.1 °F 78% 29.84 in 10.0 mi South 10.4 mph 16.1 mph N/A   Clear
2:13 AM 23.4 °F 11.6 °F 17.4 °F 78% 29.83 in 10.0 mi South 12.7 mph 17.3 mph N/A   Clear
2:33 AM 23.4 °F 12.8 °F 17.4 °F 78% 29.84 in 10.0 mi South 10.4 mph 16.1 mph N/A   Clear
2:53 AM 23.0 °F 12.4 °F 17.4 °F 79% 29.82 in 10.0 mi South 10.4 mph 16.1 mph N/A   Clear
3:13 AM 22.6 °F 11.9 °F 17.2 °F 80% 29.82 in 10.0 mi South 10.4 mph 16.1 mph N/A   Clear
3:33 AM 22.6 °F 11.9 °F 17.4 °F 80% 29.82 in 10.0 mi South 10.4 mph - N/A   Clear
3:53 AM 23.0 °F 13.9 °F 17.6 °F 80% 29.82 in 10.0 mi South 8.1 mph - N/A   Clear
4:13 AM 23.7 °F 14.0 °F 18.5 °F 80% 29.82 in 10.0 mi SSW 9.2 mph - N/A   Clear
4:33 AM 24.1 °F 16.0 °F 18.9 °F 80% 29.82 in 10.0 mi SSW 6.9 mph - N/A   Clear
4:53 AM 25.2 °F 14.4 °F 19.4 °F 79% 29.82 in 10.0 mi SSW 11.5 mph - N/A   Clear
5:13 AM 25.3 °F 15.3 °F 19.9 °F 80% 29.82 in 10.0 mi SSW 10.4 mph 16.1 mph N/A   Clear
5:33 AM 25.3 °F 15.3 °F 19.9 °F 80% 29.82 in 10.0 mi SSW 10.4 mph - N/A   Clear
5:53 AM 25.2 °F 17.3 °F 19.9 °F 81% 29.82 in 10.0 mi SSW 6.9 mph - N/A   Clear
6:13 AM 24.6 °F 17.7 °F 19.9 °F 82% 29.84 in 10.0 mi SW 5.8 mph - N/A   Clear
6:33 AM 24.4 °F 17.5 °F 19.8 °F 82% 29.84 in 10.0 mi SW 5.8 mph - N/A   Clear
6:53 AM 24.6 °F 18.8 °F 19.8 °F 82% 29.84 in 10.0 mi SW 4.6 mph - N/A   Clear
7:13 AM 24.4 °F 17.5 °F 19.9 °F 83% 29.83 in 10.0 mi South 5.8 mph - N/A   Clear
7:33 AM 24.3 °F 19.9 °F 19.9 °F 84% 29.82 in 10.0 mi South 3.5 mph - N/A   Clear
7:53 AM 23.7 °F 16.6 °F 19.6 °F 84% 29.84 in 10.0 mi SSW 5.8 mph - N/A   Clear
8:33 AM 25.3 °F 17.6 °F 21.0 °F 84% 29.85 in 10.0 mi WSW 6.9 mph - N/A   Mostly Cloudy
8:53 AM 26.4 °F 17.3 °F 21.6 °F 82% 29.86 in 10.0 mi SW 9.2 mph - N/A   Overcast
9:13 AM 26.6 °F 18.2 °F 21.2 °F 80% 29.86 in 10.0 mi WSW 8.1 mph - N/A   Scattered Clouds
9:33 AM 26.1 °F 16.8 °F 20.7 °F 80% 29.87 in 10.0 mi WSW 9.2 mph - N/A   Clear
9:53 AM 25.3 °F 16.7 °F 19.8 °F 79% 29.87 in 10.0 mi WSW 8.1 mph - N/A   Clear
10:13 AM 26.4 °F 18.0 °F 20.3 °F 78% 29.88 in 10.0 mi West 8.1 mph - N/A   Clear
10:33 AM 27.1 °F 16.9 °F 20.8 °F 77% 29.89 in 10.0 mi WSW 11.5 mph - N/A   Clear
10:53 AM 28.2 °F 18.9 °F 21.2 °F 75% 29.89 in 10.0 mi WSW 10.4 mph - N/A   Clear
11:33 AM 32.0 °F 22.5 °F 22.1 °F 67% 29.88 in 10.0 mi WSW 12.7 mph - N/A   Clear
11:53 AM 32.0 °F 23.0 °F 22.1 °F 67% 29.87 in 10.0 mi WSW 11.5 mph - N/A   Clear
12:34 PM 32.4 °F 24.0 °F 23.0 °F 68% 29.86 in 10.0 mi WSW 10.4 mph - N/A   Clear
1:13 PM 32.5 °F 24.2 °F 23.2 °F 68% 29.86 in 10.0 mi WSW 10.4 mph - N/A   Clear
1:33 PM 32.9 °F 25.3 °F 23.4 °F 68% 29.86 in 10.0 mi WSW 9.2 mph - N/A   Clear
1:53 PM 32.9 °F 25.3 °F 23.5 °F 68% 29.86 in 10.0 mi WSW 9.2 mph - N/A   Clear
2:13 PM 33.3 °F 26.4 °F 23.2 °F 67% 29.86 in 10.0 mi SW 8.1 mph - N/A   Clear
2:33 PM 32.9 °F 25.9 °F 23.5 °F 68% 29.87 in 10.0 mi SW 8.1 mph - N/A   Clear
2:53 PM 33.3 °F 25.7 °F 23.5 °F 68% 29.87 in 10.0 mi WSW 9.2 mph - N/A   Clear
3:13 PM 32.0 °F 24.8 °F 23.5 °F 71% 29.88 in 10.0 mi WSW 8.1 mph - N/A   Clear
3:33 PM 31.6 °F 25.1 °F 23.0 °F 70% 29.88 in 10.0 mi WSW 6.9 mph - N/A   Clear
3:53 PM 31.1 °F 24.5 °F 23.4 °F 73% 29.89 in 10.0 mi WSW 6.9 mph - N/A   Clear
4:13 PM 30.2 °F 22.6 °F 23.7 °F 77% 29.89 in 10.0 mi SW 8.1 mph - N/A   Clear
4:33 PM 31.5 °F 24.2 °F 23.9 °F 74% 29.90 in 10.0 mi WSW 8.1 mph - N/A   Clear
5:12 PM 28.0 °F 21.7 °F 22.8 °F 81% 29.90 in 10.0 mi WSW 5.8 mph - N/A   Clear
5:33 PM 27.5 °F 20.2 °F 22.1 °F 80% 29.91 in 10.0 mi SW 6.9 mph - N/A   Clear
5:53 PM 24.6 °F 15.8 °F 20.1 °F 83% 29.91 in 10.0 mi SW 8.1 mph - N/A   Clear
6:14 PM 30.0 °F 21.1 °F 23.2 °F 76% 29.91 in 10.0 mi SW 10.4 mph - N/A   Clear
6:33 PM 30.4 °F 22.2 °F 22.8 °F 73% 29.91 in 10.0 mi SW 9.2 mph - N/A   Clear
6:53 PM 25.5 °F 21.3 °F 20.1 °F 80% 29.91 in 10.0 mi West 3.5 mph - N/A   Clear
7:14 PM 23.7 °F 19.3 °F 19.9 °F 85% 29.91 in 10.0 mi West 3.5 mph - N/A   Clear
7:33 PM 24.3 °F 19.9 °F 19.8 °F 83% 29.92 in 10.0 mi WSW 3.5 mph - N/A   Clear
7:53 PM 24.1 °F 17.0 °F 20.7 °F 87% 29.92 in 10.0 mi WSW 5.8 mph - N/A   Clear
8:14 PM 23.0 °F 18.4 °F 19.9 °F 88% 29.92 in 10.0 mi West 3.5 mph - N/A   Clear
8:33 PM 24.8 °F 17.9 °F 20.8 °F 85% 29.91 in 10.0 mi SW 5.8 mph - N/A   Clear
8:53 PM 25.7 °F 19.0 °F 20.7 °F 81% 29.92 in 10.0 mi WSW 5.8 mph - N/A   Clear
9:14 PM 27.1 °F 21.8 °F 20.5 °F 76% 29.92 in 10.0 mi West 4.6 mph - N/A   Clear
9:34 PM 26.6 °F - 21.2 °F 80% 29.93 in 10.0 mi Calm Calm - N/A   Clear
9:53 PM 24.3 °F - 19.4 °F 82% 29.93 in 10.0 mi Calm Calm - N/A   Clear
10:13 PM 23.7 °F 17.8 °F 19.0 °F 82% 29.93 in 10.0 mi WSW 4.6 mph - N/A   Clear
10:34 PM 18.0 °F 12.7 °F 15.4 °F 90% 29.94 in 10.0 mi West 3.5 mph - N/A   Clear
10:53 PM 19.0 °F 12.3 °F 17.4 °F 93% 29.94 in 10.0 mi WSW 4.6 mph - N/A   Clear
11:13 PM 14.7 °F 9.0 °F 13.5 °F 95% 29.94 in 10.0 mi WSW 3.5 mph - N/A   Clear
11:34 PM 16.7 °F - 14.5 °F 91% 29.94 in 10.0 mi Calm Calm - N/A   Clear
11:53 PM 17.1 °F 11.7 °F 16.2 °F 96% 29.94 in 10.0 mi SW 3.5 mph - N/A   Clear